Tracking 35334 objects as of 13-Sep-2026
HD Live streaming from Space Station
objects crossing your sky now

COSMOS 1345


COSMOS 1345 is no longer on orbit


NORAD ID: 13118
Int'l Code: 1982-026A
Launch date: March 31, 1982
Source: Commonwealth of Independent States (former USSR) (CIS)
Launch site: PLESETSK MISSILE AND SPACE COMPLEX (PKMTR)
Decay date: 1989-09-27
Your satellite tracking list
Your tracking list is empty




NASA's NSSDC Master Catalog

Two Line Element Set (TLE):
1 13118U 82026  A 92163.06104895  .00003955 +00000-0 +14236-3 0  9997
2 13118 082.4982 146.2998 0017154 124.5233 235.6461 15.28150289085108
Source of the keplerian elements: AFSPC